This demonstration page uses our WeatherBlox Daily Observations layout. Learn more.

Left ArrowRight Arrow

Hourly Observations for May 29, 2022

Temp ( °F °C ) Dew Point ( °F °C ) Humidity (%) Winds ( mph kmh ) Pressure ( in mb ) Visibility ( mi km ) Precip ( " mm )
12:52 am 00:52 Clear 67 19.4 61 16.1 81 81 SSE 18 30 29.73 1007 10 16 0.00 0.00
1:52 am 01:52 Clear 66 18.9 60 15.6 81 81 SSE 20 31 29.70 1006 10 16 0.00 0.00
2:52 am 02:52 Clear 66 18.9 60 15.6 81 81 S 15 24 29.71 1006 10 16 0.00 0.00
3:52 am 03:52 Clear 66 18.9 60 15.6 81 81 SSE 18 30 29.70 1006 10 16 0.00 0.00
4:52 am 04:52 Clear 66 18.9 59 15 78 78 SSE 18 30 29.68 1005 10 16 0.00 0.00
5:52 am 05:52 Clear 65 18.3 59 15 81 81 SSE 16 26 29.69 1005 10 16 0.00 0.00
6:52 am 06:52 Sunny 65 18.3 59 15 81 81 SSE 20 31 29.69 1006 10 16 0.00 0.00
7:52 am 07:52 Sunny 68 20 60 15.6 76 76 SSE 18 30 29.71 1006 10 16 0.00 0.00
8:52 am 08:52 Sunny 71 21.7 61 16.1 71 71 SSE 21 33 29.72 1007 10 16 0.00 0.00
9:52 am 09:52 Sunny 75 23.9 63 17.2 66 66 S 21 33 29.71 1006 10 16 0.00 0.00
10:52 am 10:52 Sunny 79 26.1 62 16.7 56 56 S 23 37 29.70 1006 10 16 0.00 0.00
11:52 am 11:52 Sunny 81 27.2 63 17.2 54 54 S 22 35 29.70 1006 10 16 0.00 0.00
12:52 pm 12:52 Sunny 85 29.4 62 16.7 46 46 S 22 35 29.69 1005 10 16 0.00 0.00
1:52 pm 13:52 Sunny 87 30.6 57 13.9 36 36 S 24 39 29.67 1005 10 16 0.00 0.00
2:52 pm 14:52 Sunny 87 30.6 58 14.4 37 37 S 21 33 29.65 1004 10 16 0.00 0.00
3:52 pm 15:52 Sunny 87 30.6 59 15 39 39 SSE 28 44 29.63 1003 10 16 0.00 0.00
4:52 pm 16:52 Sunny 85 29.4 64 17.8 50 50 SSE 21 33 29.63 1003 10 16 0.00 0.00
5:52 pm 17:52 Sunny 83 28.3 63 17.2 51 51 SSE 25 41 29.63 1003 10 16 0.00 0.00
6:52 pm 18:52 Sunny 80 26.7 63 17.2 56 56 SSE 22 35 29.63 1004 10 16 0.00 0.00
7:52 pm 19:52 Sunny 78 25.6 63 17.2 60 60 SSE 22 35 29.64 1004 10 16 0.00 0.00
8:52 pm 20:52 Clear 77 25 63 17.2 62 62 SSE 24 39 29.65 1004 10 16 0.00 0.00
9:52 pm 21:52 Clear 75 23.9 63 17.2 66 66 SSE 26 43 29.68 1005 10 16 0.00 0.00
10:52 pm 22:52 Clear 74 23.3 63 17.2 69 69 SSE 28 44 29.70 1006 10 16 0.00 0.00
11:52 pm 23:52 Clear 73 22.8 62 16.7 69 69 SSE 21 33 29.70 1006 10 16 0.00 0.00

Powered by AerisWeather